Location: Schommer Observatory
(40.5200°N, 74.4500°W)
Time: 18:43:42
(UTC-04:00)

Tiangong 2 - Pass Details

Date: 24 March 2019
Orbit: 378 x 389 km, 42.8° (Epoch: 22 April)

Event Time Altitude Azimuth Distance (km) Brightness Sun altitude
Exits shadow 04:59:54 14° 142° (SE) 1,169 3.6 -22.1°
Drops below altitude 10° 05:00:30 10° 137° (SE) 1,395 4.1 -22.0°
Sets 05:02:39 0° 129° (SE) 2,248 5.3 -21.7°
